weather.gov     
National Weather Service

Regional Weather Roundup
NWS Homepage
This page is being discontinued on March 12, 2014.
The same data is available at this site. Please update your bookmarks.
Thank you, and we apologize for the inconvenience.
Please send an email to SR-SRH.Webmaster@noaa.gov with any concerns.


Current Version
Previous Version:    01  02  03  04  05  06  07  08  09  10  11  12  13  14  15  16  17  18  19  20  21  22  23  24  25  26  
[Printable]
923
ASUS42 KFFC 241603
RWRGA
WEATHER ROUNDUP FOR GEORGIA
NATIONAL WEATHER SERVICE PEACHTREE CITY GA
1200 PM EDT FRI OCT 24 2014

NOTE: "FAIR" INDICATES FEW OR NO CLOUDS BELOW 12,000 FEET WITH NO
SIGNIFICANT WEATHER AND/OR OBSTRUCTIONS TO VISIBILITY.

* = USE WITH CAUTION. THE STATIONS MARKED WITH AN ASTERISK MAY NOT
REPORT WEATHER SUCH AS PRECIPITATION, FOG, OR THUNDER AND ARE NOT
QUALITY CONTROLLED BY NWS.

THE REMARK "TC" DENOTES TEMPERATURE READING IN DEGREES CELSIUS.

GAZ001>058-241700-
NORTH GEORGIA

CITY           SKY/WX    TMP DP  RH WIND       PRES   REMARKS
ATLANTA        MOSUNNY   66  48  52 CALM      30.07F
ATHENS         MOSUNNY   64  45  49 CALM      30.08F
CHAMBLEE       SUNNY     66  47  50 VRB3      30.07F
PEACHTREE CITY MOSUNNY   65  47  52 SW3       30.08S
ROME           NOT AVBL
WEST ATLANTA   SUNNY     62  48  60 CALM      30.07F
GAINESVILLE    PTSUNNY   61  43  51 NE3       30.10F
CARTERSVILLE   SUNNY     61  45  55 VRB3      30.10S


CITY           SKY/WX    TMP DP  RH WIND       PRES   REMARKS
DALTON*        MOSUNNY   61  46  59 N9        30.10S
LAWRENCEVILLE* SUNNY     66  37  34 CALM      30.07F
MARIETTA       MOSUNNY   63  49  60 NW1       30.08S
KENNESAW*      MOSUNNY   61  45  55 N6        30.10F
$$

GAZ059>098-102>109-241700-
CENTRAL GEORGIA

CITY           SKY/WX    TMP DP  RH WIND       PRES   REMARKS
AUGUSTA-BUSH   SUNNY     67  46  47 VRB5      30.07F
AUGUSTA-DANIEL SUNNY     67  45  45 E5        30.08F
COLUMBUS       MOSUNNY   64  44  48 CALM      30.07S
MACON          SUNNY     68  47  46 NE3       30.07F
ROBINS AFB     SUNNY     67  50  53 VRB2      30.07F


CITY           SKY/WX    TMP DP  RH WIND       PRES   REMARKS
LAGRANGE*      MOSUNNY   63  52  67 N5        30.09S
SYLVANIA*      MOSUNNY   71  54  55 CALM      30.08S
MILLEDGEVILLE* SUNNY     66  54  63 CALM      30.07F
$$

GAZ099>101-110>166-241700-
SOUTH GEORGIA

CITY           SKY/WX    TMP DP  RH WIND       PRES   REMARKS
SAVANNAH       PTSUNNY   69  46  43 CALM      30.08S
VALDOSTA       MOSUNNY   70  42  36 E5        30.07F
ALMA           SUNNY     70  45  40 E3        30.07S
ST SIMONS      MOSUNNY   70  46  42 N8        30.07S
FT STEWART     MOSUNNY   67  48  49 NE1       30.06F
ALBANY         SUNNY     71  49  45 VRB3      30.08F
HUNTER AFB     MOSUNNY   69  46  44 NE3       30.06R
MOODY AFB      SUNNY     69  46  42 VRB3      30.06F
BRUNSWICK      MOSUNNY   70  46  43 N6        30.08S


CITY           SKY/WX    TMP DP  RH WIND       PRES   REMARKS
BAINBRIDGE*    SUNNY     73  52  46 CALM      30.06F
MOULTRIE*      SUNNY     70  45  40 CALM      30.08S
VIDALIA*       MOSUNNY   68  48  49 NE3       30.08S
WAYCROSS*      SUNNY     72  50  45 CALM      30.07S
DOUGLAS*       SUNNY     70  43  37 NE5       30.08F
$$




U.S. Dept. of Commerce
NOAA National Weather Service
1325 East West Highway
Silver Spring, MD 20910
E-mail: w-nws.webmaster@noaa.gov
Page last modified: May 16, 2007
NATIONAL WEATHER SERVICE: for Safety, for Work, for Fun - FOR LIFE